User: anonymous
Location: Cincinnati Observatory Center
(39.1389°N, 84.4225°W)
Time: 06:25:39
(UTC-04:00)
Language:

COSMOS 2428 - Orbit

View from above orbital plane
View from above orbital plane
View from above satellite
View from above satellite

Ground track
Ground track

The orbit data is extracted from the following two-line orbital elements,

1 31792U 07029A   14275.11259880  .00000403  00000-0  24403-3 0   492
2 31792 070.9706 325.5135 0009874 310.6708 089.0372 14.12434335374418
Epoch (UTC): 02 October 2014 02:42:08
Eccentricity: 0.0009874
inclination: 70.9706°
perigee height: 844 km
apogee height: 858 km
right ascension of ascending node: 325.5135°
argument of perigee: 310.6708°
revolutions per day: 14.12434335
mean anomaly at epoch: 89.0372°
orbit number at epoch: 37441

The dashed part of the orbit path shows where the satellite is in the earth's shadow,  

DLR